GW4558 Weather Reports


Display with metric or nautical units.
time (UTC)temp
F
wind
direction
speed
MPH
gust
MPH
rain 1hr
in
rain 24hr
in
rain mn
in
humidity
%
barometer
mb
20260510191538 70 316 1.0 9.0 0.00 0.00 0.00 47 1020.2
20260510190047 70 355 3.0 10.0 0.00 0.00 0.00 44 1020.2
20260510184537 69 0 3.0 12.0 0.00 0.00 0.00 44 1020.2
20260510183037 69 30 1.0 8.0 0.00 0.00 0.00 46 1020.1
20260510181533 69 109 2.0 9.0 0.00 0.00 0.00 49 1020.1
20260510180037 68 360 2.0 11.0 0.00 0.00 0.00 43 1020.0
20260510174540 68 56 3.0 12.0 0.00 0.00 0.00 49 1019.6
20260510173036 68 99 4.0 12.0 0.00 0.00 0.00 47 1019.7
20260510171533 67 35 3.0 13.0 0.00 0.00 0.00 46 1019.7
20260510170037 67 87 3.0 11.0 0.00 0.00 0.00 47 1019.6
20260510164534 67 77 5.0 14.0 0.00 0.00 0.00 49 1019.5
20260510163034 66 22 4.0 12.0 0.00 0.00 0.00 46 1019.3
20260510161537 66 59 2.0 9.0 0.00 0.00 0.00 51 1019.3
20260510160037 65 62 4.0 10.0 0.00 0.00 0.00 53 1019.5
20260510154538 63 69 4.0 16.0 0.00 0.00 0.00 52 1019.2
20260510153037 63 115 3.0 12.0 0.00 0.00 0.00 53 1019.2
20260510151545 63 91 3.0 10.0 0.00 0.00 0.00 53 1019.4
20260510150048 62 66 3.0 13.0 0.00 0.00 0.00 55 1019.4
20260510144553 62 33 3.0 12.0 0.00 0.00 0.00 58 1019.4
20260510143036 62 61 3.0 12.0 0.00 0.00 0.00 58 1019.5
20260510141536 62 67 2.0 14.0 0.00 0.00 0.00 61 1019.2
20260510140035 62 46 3.0 9.0 0.00 0.00 0.00 64 1018.8
20260510134542 60 77 1.0 10.0 0.00 0.00 0.00 68 1018.4
20260510133044 60 103 5.0 12.0 0.00 0.00 0.00 68 1018.2
20260510131540 61 74 4.0 11.0 0.00 0.00 0.00 71 1018.1
20260510130035 60 57 2.0 10.0 0.00 0.00 0.00 77 1017.6
20260510124532 59 0 2.0 7.0 0.00 0.00 0.00 80 1017.4
20260510123040 58 60 2.0 7.0 0.00 0.00 0.00 82 1017.1
20260510121537 58 84 0.0 5.0 0.00 0.00 0.00 84 1017.2
20260510120035 57 44 2.0 8.0 0.00 0.00 0.00 84 1016.9
20260510114601 57 34 1.0 5.0 0.00 0.00 0.00 85 1016.5
20260510113051 58 0 1.0 5.0 0.00 0.00 0.00 86 1016.0
20260510111542 58 43 0.0 4.0 0.00 0.00 0.00 86 1015.9
20260510110040 58 0 0.0 3.0 0.00 0.00 0.00 86 1016.1
20260510104547 58 0 0.0 3.0 0.00 0.01 0.00 85 1016.1
20260510103037 58 0 0.0 2.0 0.00 0.01 0.00 84 1015.9
20260510101536 58 57 1.0 4.0 0.00 0.01 0.00 84 1015.2
20260510100047 59 0 0.0 2.0 0.00 0.01 0.00 83 1015.1
20260510094545 59 12 0.0 1.0 0.00 0.01 0.00 82 1015.1
20260510093037 59 0 0.0 1.0 0.00 0.01 0.00 82 1014.6
20260510091537 59 0 0.0 2.0 0.00 0.01 0.00 81 1014.3
20260510090040 59 0 0.0 2.0 0.00 0.01 0.00 81 1014.2
20260510084536 59 0 0.0 2.0 0.00 0.01 0.00 81 1014.0
20260510083041 59 0 0.0 1.0 0.00 0.01 0.00 82 1013.9
20260510081538 59 0 0.0 2.0 0.00 0.01 0.00 82 1014.0
20260510080038 59 0 0.0 0.0 0.00 0.01 0.00 82 1013.9
20260510074542 58 0 0.0 0.0 0.00 0.01 0.00 83 1013.7
20260510073039 58 0 0.0 0.0 0.00 0.01 0.00 82 1013.6
20260510071537 59 0 0.0 0.0 0.00 0.01 0.00 81 1013.7
20260510070038 59 0 0.0 2.0 0.00 0.01 0.00 80 1013.8
20260510064535 59 0 0.0 0.0 0.00 0.01 0.00 80 1013.5
20260510063041 60 0 0.0 0.0 0.00 0.01 0.00 77 1013.4
20260510061534 61 0 0.0 0.0 0.00 0.01 0.00 76 1013.3
20260510060041 62 0 0.0 0.0 0.00 0.01 0.00 75 1013.3
20260510054538 63 0 0.0 0.0 0.00 0.02 0.00 72 1013.2
20260510053039 64 0 0.0 0.0 0.00 0.02 0.00 70 1013.2
20260510051538 65 0 0.0 3.0 0.00 0.02 0.00 68 1013.3
20260510050037 65 0 0.0 1.0 0.00 0.02 0.00 68 1013.3
20260510044536 65 0 1.0 3.0 0.00 0.02 0.02 67 1013.0
20260510043034 65 0 0.0 0.0 0.00 0.02 0.02 68 1013.0
20260510041546 64 0 0.0 8.0 0.00 0.02 0.02 69 1013.0
20260510040039 62 360 0.0 3.0 0.00 0.02 0.02 71 1012.4
20260510034537 62 0 0.0 0.0 0.00 0.02 0.02 72 1011.9
20260510033044 63 0 0.0 0.0 0.00 0.02 0.02 72 1011.9
20260510031535 63 0 0.0 0.0 0.00 0.02 0.02 71 1011.8
20260510030034 64 0 0.0 0.0 0.00 0.02 0.02 67 1011.7
20260510024539 64 0 0.0 0.0 0.00 0.38 0.02 67 1011.5
20260510023034 65 0 0.0 0.0 0.00 0.38 0.02 69 1011.2
20260510021540 66 0 0.0 0.0 0.00 0.38 0.02 64 1010.8
20260510020037 68 0 0.0 0.0 0.00 0.38 0.02 66 1010.1
20260510014538 69 0 0.0 0.0 0.00 0.48 0.02 61 1010.1
20260510013040 70 0 0.0 0.0 0.00 0.48 0.02 58 1009.8
20260510011540 72 0 0.0 0.0 0.00 0.48 0.02 55 1009.7
20260510010038 73 0 0.0 0.0 0.00 0.48 0.02 52 1009.4
20260510004538 74 0 0.0 1.0 0.00 0.48 0.02 50 1009.2
20260510003049 76 0 0.0 0.0 0.00 0.48 0.02 50 1009.2
20260510001542 77 0 0.0 1.0 0.00 0.48 0.02 48 1009.3
20260510000043 78 0 0.0 1.0 0.00 0.48 0.02 47 1009.4
20260509234549 80 0 0.0 3.0 0.00 0.48 0.02 45 1009.5
20260509233038 80 0 0.0 2.0 0.00 0.48 0.02 45 1009.4
20260509231538 80 212 0.0 3.0 0.00 0.48 0.02 40 1009.3
20260509230034 80 0 0.0 2.0 0.00 0.48 0.02 42 1009.2
20260509224536 81 0 0.0 4.0 0.00 0.48 0.02 41 1009.3
20260509223040 82 209 0.0 4.0 0.00 0.48 0.02 38 1009.3
20260509221536 82 0 1.0 5.0 0.00 0.48 0.02 37 1009.4
20260509220054 82 214 1.0 4.0 0.00 0.48 0.02 37 1009.3
20260509214542 82 242 2.0 8.0 0.00 0.48 0.02 39 1009.1
20260509213040 82 0 2.0 6.0 0.00 0.48 0.02 40 1009.1
20260509211542 82 231 1.0 5.0 0.00 0.48 0.02 41 1009.4
20260509210037 82 0 1.0 7.0 0.00 0.48 0.02 42 1009.6
20260509204544 82 244 1.0 6.0 0.00 0.48 0.02 41 1009.8
20260509203038 82 300 1.0 4.0 0.00 0.48 0.02 42 1009.7
20260509201538 81 0 1.0 6.0 0.00 0.48 0.02 38 1009.9
20260509200040 81 208 2.0 8.0 0.00 0.48 0.02 42 1010.2
20260509194540 81 224 2.0 9.0 0.00 0.48 0.02 43 1010.3
20260509193042 80 238 1.0 10.0 0.00 0.48 0.02 46 1010.4